Weather in Chika

Russia / Komi Republic     65°29′07″N   54°19′41″E
temp.,
°C
wind,
m/s
gust,
m/s
humid.,
%
clouds,
%
prec.,
mm/h
press.,
hPa
HPBL,
m
16 may, sun
sun1600:00+5ene257689 0.0 1016214
03:00+3e248499 0.0 1016123
06:00+5ene3584100 0.1 1015255
09:00+8e3573100 0.1 1014415
12:00+10e3565100 0.0 1013575
15:00+10ene3672100 0.2 1011426
18:00+9ne4872100 0.1 1009453
21:00+7ne4973100 0.2 1009402
17 may, mon
mon1700:00+7ene3977100 0.2 1009390
03:00+6ne3992100 3.6 1009396
06:00+5ne41191100 7.0 1010430
09:00+5nne41086100 7.8 1012443
12:00+10nne4754100 0.1 1014806
15:00+12nne4541100 0.1 10151181
18:00+11n3537100 0.0 1017797
21:00+7n2448100 0.0 101980
18 may, tue
tue1800:00+5ne22525 0.0 102117
03:00+4ene115470 0.0 102310
06:00+7ese114222 0.0 1024229
09:00+12s122811 0.0 1024763
12:00+16ssw232820 0.0 10231183
15:00+18ssw2330100 0.0 10231442
18:00+17s353999 0.0 1022340
21:00+15s31048100 0.0 1022336
19 may, wed
wed1900:00+12ssw3115769 0.0 1021253
03:00+12ssw31156100 0.0 1021284
06:00+14ssw4114881 0.0 1019418
09:00+20ssw594043 0.0 1016891
12:00+25sw693623 0.0 10141388
15:00+27sw6113099 0.0 10122514
18:00+26wsw5103630 0.0 10102007
21:00+21sw3115127 0.0 1010260
20 may, thu
thu2000:00+20sw4145554 0.0 1009378
03:00+19sw4156046 0.0 1010432
06:00+23wsw512495 0.0 1010659
09:00+27w58363 0.0 10091210
12:00+30w611261 0.0 10093729
15:00+30w492493 0.0 10093612
18:00+28wsw26276 0.1 1008733
21:00+19e256862 1.3 1010102